Zurück zum Katalog

STARLINK-37433

AktivKommunikationVLEO
NORAD 69841·PAYLOAD·🇺🇸 United States

Gestartet Jul 5, 2026 von Cape Canaveral Space Force Station

Loading…

Nächste Überflüge (nächste 24 Stunden)

TLE

AktuellSource: CelesTrak SupGP

Epoche: Sep 14, 2026, 21:31 UTC

1 69841C 26154Y   26257.89701389 -.00005455  00000+0 -16116-3 0  2578
2 69841  53.1591 358.2169 0001123  71.7609 280.0732 15.34392326    16

Verfolge STARLINK-37433 in Echtzeit mit AllMySat

Download on the App Store